Date String (YYYY-MM-DD hh:mm:ss) UTC,Instrument flags,Ambient pressure (hPa),Sample flow (lpm),Bypass flow (lpm),Sample temperature (°C),Ambient temperature (°C),ASC tube jacket temperature (°C),LED temperature (°C),Box temperature (°C),Sample RH (%),Span deviation,Mass concentration (μg/m³),Mass concentration (μg/m³),Mass concentration (μg/m³)
DateTimeUTC,F1_M11,P_M11,Q1_M11,Q2_M11,T1_M11,T2_M11,T3_M11,T4_M11,T5_M11,U1_M11,ZSPAN_M11,X0_M11,X2_M11,X1_M11
2022-01-25 15:00:00,,0827.5,5.01,0.00,22.0,22.3,00.0,31.2,23.9,14.9,0000.0,0001.87,0001.51,0001.39
2022-01-25 15:01:00,,0827.5,5.00,0.00,22.2,23.1,00.0,31.2,24.2,14.8,0000.0,0001.83,0001.49,0001.38
2022-01-25 15:02:00,,0827.5,5.00,0.00,22.3,23.0,00.0,31.2,24.2,14.7,0000.0,0001.86,0001.49,0001.37
2022-01-25 15:03:00,,0827.5,4.99,0.00,22.3,22.6,00.0,31.2,24.1,14.7,0000.0,0001.76,0001.42,0001.34
2022-01-25 15:04:00,,0827.5,5.00,0.00,22.2,22.3,00.0,31.2,24.0,14.6,0000.0,0001.68,0001.37,0001.29
2022-01-25 15:05:00,,0827.5,5.00,0.00,22.2,22.1,00.0,31.2,23.9,14.7,0000.0,0001.66,0001.34,0001.26
2022-01-25 15:06:00,,0827.5,5.02,0.00,22.1,21.9,00.0,31.2,23.8,14.7,0000.0,0001.62,0001.30,0001.22
2022-01-25 15:07:00,,0827.6,4.99,0.00,22.1,21.7,00.0,31.2,23.7,14.7,0000.0,0001.59,0001.27,0001.18
2022-01-25 15:08:00,,0827.6,5.00,0.00,22.0,21.5,00.0,31.2,23.6,14.8,0000.0,0001.50,0001.21,0001.15
2022-01-25 15:09:00,,0827.7,4.99,0.00,22.0,21.4,00.0,31.1,23.6,14.8,0000.0,0001.37,0001.16,0001.11
2022-01-25 15:10:00,,0827.7,5.02,0.00,21.9,21.3,00.0,31.1,23.5,14.9,0000.0,0001.36,0001.13,0001.09
2022-01-25 15:11:00,,0827.6,4.99,0.00,21.9,21.2,00.0,31.1,23.5,14.9,0000.0,0001.41,0001.14,0001.09
2022-01-25 15:12:00,,0827.7,4.99,0.00,21.8,21.1,00.0,31.1,23.4,14.9,0000.0,0001.44,0001.16,0001.09
2022-01-25 15:13:00,,0827.7,5.00,0.00,21.8,21.2,00.0,31.0,23.4,15.0,0000.0,0001.48,0001.19,0001.10
2022-01-25 15:14:00,,0827.7,4.99,0.00,21.9,21.9,00.0,31.1,23.7,14.9,0000.0,0001.53,0001.23,0001.12
2022-01-25 15:15:00,,0827.7,5.01,0.00,22.1,22.7,00.0,31.1,24.0,14.8,0000.0,0001.58,0001.27,0001.15
2022-01-25 15:16:00,,0827.7,5.00,0.00,22.2,22.9,00.0,31.1,24.1,14.7,0000.0,0001.61,0001.29,0001.18
2022-01-25 15:17:00,,0827.8,4.99,0.00,22.2,22.6,00.0,31.1,24.1,14.7,0000.0,0001.65,0001.32,0001.20
2022-01-25 15:18:00,,0827.8,5.01,0.00,22.2,22.3,00.0,31.1,24.0,14.7,0000.0,0001.68,0001.35,0001.24
2022-01-25 15:19:00,,0827.8,5.00,0.00,22.2,22.1,00.0,31.1,23.9,14.7,0000.0,0001.74,0001.40,0001.28
2022-01-25 15:20:00,,0827.8,4.99,0.00,22.1,21.8,00.0,31.1,23.9,14.7,0000.0,0001.78,0001.44,0001.32
2022-01-25 15:21:00,,0827.9,5.00,0.00,22.1,21.6,00.0,31.1,23.8,14.7,0000.0,0001.83,0001.49,0001.36
2022-01-25 15:22:00,,0827.9,5.00,0.00,22.1,21.5,00.0,31.1,23.8,14.8,0000.0,0001.90,0001.53,0001.38
2022-01-25 15:23:00,,0828.0,4.99,0.00,22.0,21.4,00.0,31.1,23.7,14.9,0000.0,0001.90,0001.55,0001.41
2022-01-25 15:24:00,,0828.0,5.01,0.00,22.0,21.4,00.0,31.1,23.7,14.9,0000.0,0001.85,0001.54,0001.44
2022-01-25 15:25:00,,0828.1,5.01,0.00,22.0,21.4,00.0,31.1,23.6,14.9,0000.0,0001.87,0001.55,0001.46
2022-01-25 15:26:00,,0828.1,5.00,0.00,22.0,21.3,00.0,31.0,23.6,15.0,0000.0,0001.96,0001.59,0001.48
2022-01-25 15:27:00,,0828.1,4.99,0.00,21.9,21.3,00.0,31.0,23.6,15.0,0000.0,0002.00,0001.62,0001.50
2022-01-25 15:28:00,,0828.2,4.99,0.00,22.0,21.9,00.0,31.0,23.8,15.0,0000.0,0002.06,0001.67,0001.53
2022-01-25 15:29:00,,0828.1,5.00,0.00,22.1,22.7,00.0,31.1,24.1,14.9,0000.0,0002.09,0001.70,0001.56
2022-01-25 15:30:00,,0828.4,5.01,0.00,22.3,23.3,00.0,31.1,24.3,14.8,0000.0,0002.17,0001.74,0001.59
2022-01-25 15:31:00,,0828.5,5.00,0.00,22.4,23.1,00.0,31.2,24.3,14.8,0000.0,0002.22,0001.76,0001.61
2022-01-25 15:32:00,,0828.4,4.99,0.00,22.4,22.8,00.0,31.2,24.3,14.8,0000.0,0002.21,0001.77,0001.61
2022-01-25 15:33:00,,0828.2,5.00,0.00,22.4,22.5,00.0,31.2,24.3,14.8,0000.0,0002.16,0001.77,0001.64
2022-01-25 15:34:00,,0828.2,5.00,0.00,22.4,22.3,00.0,31.2,24.2,14.8,0000.0,0002.20,0001.79,0001.66
2022-01-25 15:35:00,,0828.2,5.00,0.00,22.3,22.1,00.0,31.2,24.1,14.8,0000.0,0002.24,0001.82,0001.68
2022-01-25 15:36:00,,0828.2,5.00,0.00,22.3,21.9,00.0,31.2,24.1,14.9,0000.0,0002.30,0001.88,0001.71
2022-01-25 15:37:00,,0828.2,5.00,0.00,22.3,21.8,00.0,31.2,24.0,14.9,0000.0,0002.42,0001.92,0001.74
2022-01-25 15:38:00,,0828.3,5.00,0.00,22.3,21.7,00.0,31.2,24.0,14.9,0000.0,0002.45,0001.94,0001.77
2022-01-25 15:39:00,,0828.3,5.00,0.00,22.3,21.7,00.0,31.2,24.0,15.0,0000.0,0002.51,0001.98,0001.80
2022-01-25 15:40:00,,0828.3,5.00,0.00,22.2,21.6,00.0,31.2,23.9,15.0,0000.0,0002.86,0002.04,0001.83
2022-01-25 15:41:00,,0828.4,5.01,0.00,22.2,21.6,00.0,31.2,23.9,15.0,0000.0,0002.98,0002.04,0001.84
2022-01-25 15:42:00,,0828.4,4.99,0.00,22.2,21.6,00.0,31.2,23.9,15.1,0000.0,0002.95,0002.04,0001.85
2022-01-25 15:43:00,,0828.4,5.01,0.00,22.2,21.5,00.0,31.2,23.9,15.1,0000.0,0003.00,0002.08,0001.88
2022-01-25 15:44:00,,0828.5,5.01,0.00,22.2,21.5,00.0,31.1,23.9,15.1,0000.0,0003.02,0002.12,0001.91
2022-01-25 15:45:00,,0828.4,5.00,0.00,22.2,21.5,00.0,31.1,23.9,15.2,0000.0,0003.00,0002.13,0001.94
2022-01-25 15:46:00,,0828.4,5.00,0.00,22.1,21.5,00.0,31.1,23.8,15.2,0000.0,0003.02,0002.16,0001.97
2022-01-25 15:47:00,,0828.4,5.00,0.00,22.1,21.4,00.0,31.1,23.8,15.2,0000.0,0003.02,0002.17,0001.99
2022-01-25 15:48:00,,0828.5,5.00,0.00,22.2,21.8,00.0,31.2,23.9,15.2,0000.0,0003.00,0002.17,0002.01
2022-01-25 15:49:00,,0828.8,4.99,0.00,22.3,22.6,00.0,31.2,24.2,15.1,0000.0,0003.10,0002.23,0002.03
2022-01-25 15:50:00,,0828.9,5.02,0.00,22.4,23.0,00.0,31.2,24.4,15.0,0000.0,0003.04,0002.20,0002.01
2022-01-25 15:51:00,,0829.0,4.99,0.00,22.5,22.8,00.0,31.3,24.4,15.0,0000.0,0002.74,0002.13,0001.98
2022-01-25 15:52:00,,0828.9,5.00,0.00,22.5,22.6,00.0,31.3,24.3,14.9,0000.0,0002.87,0002.06,0001.89
2022-01-25 15:53:00,,0829.0,5.00,0.00,22.4,22.4,00.0,31.3,24.3,14.9,0000.0,0002.82,0001.96,0001.80
2022-01-25 15:54:00,,0828.8,5.01,0.00,22.4,22.2,00.0,31.3,24.2,14.9,0000.0,0002.73,0001.86,0001.69
2022-01-25 15:55:00,,0828.6,5.00,0.00,22.4,22.1,00.0,31.3,24.1,14.9,0000.0,0002.62,0001.74,0001.59
2022-01-25 15:56:00,,0828.7,5.00,0.00,22.4,21.9,00.0,31.3,24.1,14.9,0000.0,0002.60,0001.65,0001.48
2022-01-25 15:57:00,,0828.8,4.99,0.00,22.3,21.8,00.0,31.3,24.1,14.9,0000.0,0002.56,0001.54,0001.35
2022-01-25 15:58:00,,0828.6,4.99,0.00,22.3,21.8,00.0,31.3,24.0,14.9,0000.0,0002.68,0001.45,0001.22
2022-01-25 15:59:00,,0828.6,5.02,0.00,22.3,21.7,00.0,31.3,24.0,14.9,0000.0,0002.60,0001.36,0001.09
